Tracking 29892 objects as of 21-Nov-2024
HD Live streaming from Space Station
objects crossing your sky now

THORAD AGENA D DEB

Track THORAD AGENA D DEB now!
10-day predictions


NORAD ID: 4614
Int'l Code: 1970-025S
Perigee: 874.8 km
Apogee: 989.3 km
Inclination: 100.1 °
Period: 103.5 minutes
Semi major axis: 7303 km
RCS: 0.621 m2 (medium)
Launch date: April 8, 1970
Source: United States (US)
Launch site: AIR FORCE WESTERN TEST RANGE (AFWTR)

Note: This is SATELLITE DEBRIS
Your satellite tracking list
Your tracking list is empty




NASA's NSSDC Master Catalog

Two Line Element Set (TLE):
1 04614U 70025S   24325.84156265  .00001512  00000-0  12138-2 0  9998
2 04614 100.0844 287.7081 0078387 175.4712 184.7170 13.91064096746797
Source of the keplerian elements: AFSPC